Location: Tel Aviv
(32.0670°N, 34.7670°E)
Time: 03:42:49
(UTC+03:00)

Vanguard 2 - Pass Details

Date: 25 January 2022
Orbit: 552 x 2935 km, 32.9° (Epoch: 26 May)

Event Time Altitude Azimuth Distance (km) Brightness Sun altitude
Rises 21:09:59 0° 264° (W) 4,322 12.0 -51.1°
Reaches altitude 10° 21:12:25 10° 264° (W) 3,604 11.4 -51.6°
Enters shadow 21:16:44 36° 266° (W) 2,535 10.2 -52.5°
Maximum altitude 21:22:22 88° 353° (N) 2,082 - -53.7°
Drops below altitude 10° 21:38:34 10° 86° (E) 5,556 - -57.0°
Sets 21:43:19 0° 87° (E) 6,717 - -58.0°
